Phoenix Deer Valley, AZ

11:43 AM MST on December 08, 2019 (GMT -0700)
Phoenix-Deer Valley Municipal

Weather History for KDVT - September, 2019

Change the Weather History Date:

Monday, September 16, 2019

  Actual Average Record
Temperature  
Mean Temperature 86 °F -  
Max Temperature 95 °F 95 °F 105 °F (2000)
Min Temperature 78 °F 74 °F 69 °F (1996)
Cooling Degree Days 22    
Growing Degree Days 36 (Base 50)    
Moisture  
Dew Point 58 °F    
Average Humidity 40    
Maximum Humidity 54    
Minimum Humidity 26    
Precipitation  
Precipitation 0.00 in - - ()
Sea Level Pressure  
Sea Level Pressure 29.83 in    
Wind  
Wind Speed 6 mph ()    
Max Wind Speed 21 mph    
Max Gust Speed 31 mph    
Visibility 10.0 miles    
Events Rain , Thunderstorm    
Averages and records for this station are not official NWS values.
T = Trace of Precipitation, MM = Missing Value Source: Averaged Metar Reports

Daily Weather History Graph

Daily Weather History Graph

Search for Another Location

Airport or City:

Astronomy

Sep. 16, 2019 Rise Set
Actual Time 6:12 AM MST 6:33 PM MST
Civil Twilight 5:47 AM MST 6:58 PM MST
Nautical Twilight 5:18 AM MST 7:27 PM MST
Astronomical Twilight 4:48 AM MST 7:57 PM MST
Moon 8:15 PM MST (9/16) 8:18 AM MST (9/16)
Length of Visible Light 13h 11m
Length of Day
12h 21m
Waning Gibbous, 94% of the Moon is Illuminated
Sep 16
Waning Gibbous
Sep 21
Last Quarter
Sep 28
New
Oct 5
First Quarter
Oct 13
Full

Hourly Weather History & Observations

Time (MST) Temp. Heat Index Dew Point Humidity Pressure Visibility Wind Dir Wind Speed Gust Speed Precip Events Conditions
12:53 AM 82.9 °F 82.1 °F 55.9 °F 39% 29.81 in 10.0 mi East 4.6 mph - N/A   Clear
1:53 AM 82.0 °F 81.6 °F 55.9 °F 41% 29.81 in 10.0 mi NE 3.5 mph - N/A   Clear
2:53 AM 82.9 °F 82.1 °F 55.9 °F 39% 29.81 in 10.0 mi ENE 4.6 mph - N/A   Scattered Clouds
3:53 AM 80.1 °F 80.2 °F 55.9 °F 43% 29.82 in 10.0 mi Calm Calm - N/A   Clear
4:53 AM 79.0 °F - 55.9 °F 45% 29.82 in 10.0 mi East 5.8 mph - N/A   Clear
5:53 AM 79.0 °F - 55.9 °F 45% 29.84 in 10.0 mi ENE 5.8 mph - N/A   Clear
6:53 AM 80.1 °F 80.4 °F 57.0 °F 45% 29.84 in 10.0 mi ENE 9.2 mph - N/A   Clear
7:53 AM 84.0 °F 83.5 °F 57.9 °F 41% 29.86 in 10.0 mi East 5.8 mph - N/A   Clear
8:53 AM 87.1 °F 86.7 °F 60.1 °F 40% 29.87 in 10.0 mi Variable 6.9 mph - N/A   Clear
9:53 AM 90.0 °F 89.7 °F 60.1 °F 37% 29.86 in 10.0 mi SSE 10.4 mph - N/A   Clear
11:53 AM 90.0 °F 89.7 °F 60.1 °F 37% 29.84 in 10.0 mi Calm Calm - N/A   Clear
12:53 PM 93.0 °F 93.0 °F 61.0 °F 34% 29.82 in 10.0 mi SSW 5.8 mph - N/A   Clear
1:53 PM 91.9 °F 91.8 °F 61.0 °F 35% 29.78 in 10.0 mi South 3.5 mph - N/A   Clear
2:53 PM 95.0 °F 94.4 °F 59.0 °F 30% 29.75 in 10.0 mi North - - N/A   Clear
3:53 PM 93.9 °F 92.2 °F 55.9 °F 28% 29.74 in 10.0 mi Calm Calm - N/A   Clear
4:53 PM 95.0 °F 93.0 °F 55.0 °F 26% 29.73 in 10.0 mi SW 11.5 mph - N/A   Clear
5:53 PM 93.9 °F 91.7 °F 54.0 °F 26% 29.73 in 10.0 mi WSW 4.6 mph - N/A   Clear
6:53 PM 91.9 °F 91.2 °F 59.0 °F 33% 29.75 in 10.0 mi SSE 10.4 mph - N/A   Clear
7:53 PM 84.0 °F 83.0 °F 55.9 °F 38% 29.80 in 10.0 mi SSE 20.7 mph 26.5 mph N/A   Clear
8:24 PM 82.9 °F 82.4 °F 57.0 °F 41% 29.89 in 10.0 mi SE 17.3 mph 24.2 mph N/A Thunderstorm Clear
8:39 PM 82.9 °F 82.4 °F 57.0 °F 41% 29.93 in 10.0 mi South 17.3 mph 20.7 mph N/A   Scattered Clouds
8:44 PM 84.0 °F 83.0 °F 55.9 °F 38% 29.94 in 10.0 mi SW 20.7 mph 27.6 mph N/A Thunderstorm Mostly Cloudy
8:53 PM 82.9 °F 82.1 °F 55.9 °F 39% 29.84 in 10.0 mi SSE 20.7 mph 31.1 mph N/A Thunderstorm Mostly Cloudy
9:34 PM 78.1 °F - 59.0 °F 52% 29.92 in 10.0 mi North - - 0.00 in Rain , Thunderstorm Light Rain
9:53 PM 78.1 °F - 60.1 °F 54% 29.83 in 10.0 mi ESE 10.4 mph 19.6 mph 0.00 in   Scattered Clouds
10:53 PM 78.1 °F - 59.0 °F 52% 29.83 in 10.0 mi Variable 4.6 mph - N/A   Clear
11:53 PM 79.0 °F - 57.9 °F 48% 29.83 in 10.0 mi East 4.6 mph - N/A   Clear